TimeEDT,TemperatureF,Dew PointF,Humidity,Sea Level PressureIn,VisibilityMPH,Wind Direction,Wind SpeedMPH,Gust SpeedMPH,PrecipitationIn,Events,Conditions,WindDirDegrees,DateUTC
12:25 AM,55.4,55.4,100,30.09,3.0,NE,9.2,-,0.00,,Overcast,40,2012-10-10 04:25:00
12:53 AM,55.9,55.9,100,30.08,2.5,NNE,10.4,-,0.00,,Overcast,30,2012-10-10 04:53:00
1:01 AM,55.4,55.4,100,30.07,4.0,NE,12.7,-,0.01,,Overcast,40,2012-10-10 05:01:00
1:53 AM,57.0,55.9,96,30.08,10.0,NE,10.4,-,0.01,,Overcast,40,2012-10-10 05:53:00
2:53 AM,57.0,57.0,100,30.06,10.0,NE,9.2,-,N/A,,Overcast,40,2012-10-10 06:53:00
3:53 AM,57.0,57.0,100,30.05,10.0,ENE,11.5,-,N/A,,Overcast,60,2012-10-10 07:53:00
4:53 AM,57.9,57.0,97,30.03,6.0,ENE,11.5,-,N/A,,Overcast,70,2012-10-10 08:53:00
5:53 AM,57.9,57.9,100,30.03,10.0,ENE,9.2,-,N/A,,Overcast,60,2012-10-10 09:53:00
6:53 AM,59.0,57.9,96,30.01,10.0,East,9.2,-,N/A,,Overcast,80,2012-10-10 10:53:00
7:53 AM,60.1,59.0,96,29.99,10.0,East,9.2,-,N/A,,Overcast,90,2012-10-10 11:53:00
8:51 AM,60.8,59.0,94,30.00,10.0,East,9.2,-,N/A,,Overcast,90,2012-10-10 12:51:00
8:53 AM,61.0,59.0,93,30.00,10.0,East,9.2,-,N/A,,Overcast,90,2012-10-10 12:53:00
9:12 AM,62.6,60.8,94,29.99,10.0,East,11.5,-,N/A,,Overcast,90,2012-10-10 13:12:00
9:53 AM,62.1,59.0,90,29.99,10.0,East,13.8,-,N/A,,Mostly Cloudy,90,2012-10-10 13:53:00
10:17 AM,62.6,60.8,94,29.98,10.0,East,15.0,-,N/A,,Overcast,90,2012-10-10 14:17:00
10:53 AM,64.0,61.0,90,29.96,10.0,East,15.0,19.6,N/A,,Overcast,100,2012-10-10 14:53:00
11:53 AM,63.0,61.0,93,29.94,10.0,ESE,15.0,-,N/A,,Overcast,120,2012-10-10 15:53:00
12:53 PM,64.0,60.1,87,29.90,10.0,ESE,17.3,24.2,N/A,,Overcast,120,2012-10-10 16:53:00
1:53 PM,63.0,60.1,90,29.85,10.0,East,18.4,-,N/A,,Overcast,100,2012-10-10 17:53:00
2:53 PM,63.0,60.1,90,29.83,10.0,ESE,16.1,24.2,N/A,,Overcast,110,2012-10-10 18:53:00
3:53 PM,63.0,61.0,93,29.80,10.0,ESE,13.8,-,N/A,,Overcast,120,2012-10-10 19:53:00
4:53 PM,62.1,61.0,96,29.78,10.0,SSE,11.5,-,N/A,,Overcast,160,2012-10-10 20:53:00
5:00 PM,62.6,60.8,94,29.77,9.0,SE,16.1,-,N/A,,Overcast,130,2012-10-10 21:00:00
5:53 PM,62.1,61.0,96,29.76,8.0,SE,12.7,-,N/A,,Overcast,140,2012-10-10 21:53:00
6:38 PM,62.6,62.6,100,29.76,8.0,SSW,10.4,-,0.00,,Scattered Clouds,210,2012-10-10 22:38:00
6:53 PM,62.1,60.1,93,29.77,10.0,WSW,8.1,-,0.00,,Scattered Clouds,240,2012-10-10 22:53:00
7:53 PM,62.1,60.1,93,29.78,10.0,WSW,17.3,23.0,N/A,,Partly Cloudy,240,2012-10-10 23:53:00
8:53 PM,62.1,59.0,90,29.79,10.0,WSW,16.1,-,N/A,,Partly Cloudy,250,2012-10-11 00:53:00
9:07 PM,62.6,59.0,88,29.79,10.0,WSW,15.0,21.9,N/A,,Mostly Cloudy,250,2012-10-11 01:07:00
9:53 PM,62.1,57.9,86,29.80,10.0,WSW,18.4,26.5,N/A,,Mostly Cloudy,250,2012-10-11 01:53:00
10:53 PM,62.1,57.0,84,29.80,10.0,WSW,17.3,-,N/A,,Mostly Cloudy,250,2012-10-11 02:53:00
11:53 PM,61.0,55.0,81,29.81,10.0,West,18.4,23.0,N/A,,Partly Cloudy,270,2012-10-11 03:53:00